Monroe, MI

5:45 AM EDT on June 23, 2017 (GMT -0400)
Custer

Weather History for KTTF - January, 2013

Change the Weather History Date:

Tuesday, January 15, 2013

  Actual Average Record
Temperature  
Mean Temperature 24 °F -  
Max Temperature 30 °F 29 °F 63 °F (1932)
Min Temperature 17 °F 15 °F -11 °F (2009)
Degree Days  
Heating Degree Days 42    
Moisture  
Dew Point 20 °F    
Average Humidity 80    
Maximum Humidity 100    
Minimum Humidity 60    
Precipitation  
Precipitation 0.00 in - - ()
Sea Level Pressure  
Sea Level Pressure 30.32 in    
Wind  
Wind Speed 1 mph (ESE)    
Max Wind Speed 8 mph    
Max Gust Speed -    
Visibility 9 miles    
Events      
Averages and records for this station are not official NWS values.
T = Trace of Precipitation, MM = Missing Value Source: NWS Daily Summary

Daily Weather History Graph

Daily Weather History Graph

Search for Another Location

Airport or City:

Trip Planner

Search our weather history database for the weather conditions in past years. The results will help you decide how hot, cold, wet, or windy it might be!

Date:

Astronomy

Jan. 15, 2013 Rise Set
Actual Time 7:58 AM EST 5:27 PM EST
Civil Twilight 7:28 AM EST 5:58 PM EST
Nautical Twilight 6:53 AM EST 6:33 PM EST
Astronomical Twilight 6:20 AM EST 7:06 PM EST
Moon 9:59 AM EST (1/15) 10:22 PM EST (1/15)
Length of Visible Light 10h 30m
Length of Day
9h 28m
Waxing Crescent, 19% of the Moon is Illuminated
Jan 15
Waxing Crescent
Jan 18
First Quarter
Jan 26
Full
Feb 3
Last Quarter
Feb 10
New

Hourly Weather History & Observations

Time (EST) Temp. Windchill Dew Point Humidity Pressure Visibility Wind Dir Wind Speed Gust Speed Precip Events Conditions
12:11 AM 21.2 °F - 19.4 °F 93% 30.38 in 10.0 mi Calm Calm - N/A   Clear
12:31 AM 21.2 °F - 19.4 °F 93% 30.38 in 10.0 mi Calm Calm - N/A   Clear
12:51 AM 21.2 °F - 19.4 °F 93% 30.37 in 10.0 mi Calm Calm - N/A   Clear
1:11 AM 21.2 °F - 19.4 °F 93% 30.38 in 10.0 mi Calm Calm - N/A   Clear
2:12 AM 19.4 °F - 19.4 °F 100% 30.38 in 10.0 mi Calm Calm - N/A   Clear
2:52 AM 19.4 °F - 19.4 °F 100% 30.39 in 7.0 mi Calm Calm - N/A   Clear
3:12 AM 19.4 °F - 19.4 °F 100% 30.39 in 10.0 mi Calm Calm - N/A   Clear
3:32 AM 19.4 °F - 19.4 °F 100% 30.39 in 10.0 mi Calm Calm - N/A   Clear
4:12 AM 19.4 °F - 17.6 °F 93% 30.38 in 7.0 mi Calm Calm - N/A   Clear
4:32 AM 19.4 °F - 17.6 °F 93% 30.38 in 7.0 mi Calm Calm - N/A   Clear
4:53 AM 19.4 °F - 17.6 °F 93% 30.38 in 7.0 mi Calm Calm - N/A   Clear
5:13 AM 17.6 °F - 17.6 °F 100% 30.38 in 7.0 mi Calm Calm - N/A   Clear
5:53 AM 17.6 °F - 17.6 °F 100% 30.38 in 10.0 mi Calm Calm - N/A   Clear
6:13 AM 19.4 °F - 17.6 °F 93% 30.39 in 7.0 mi Calm Calm - N/A   Clear
6:33 AM 19.4 °F - 17.6 °F 93% 30.39 in 7.0 mi Calm Calm - N/A   Clear
7:13 AM 17.6 °F - 17.6 °F 100% 30.40 in 5.0 mi Calm Calm - N/A   Clear
7:33 AM 17.6 °F - 15.8 °F 93% 30.40 in 7.0 mi Calm Calm - N/A   Clear
7:53 AM 17.6 °F - 17.6 °F 100% 30.41 in 7.0 mi Calm Calm - N/A   Clear
8:14 AM 17.6 °F - 15.8 °F 93% 30.38 in 7.0 mi Calm Calm - N/A   Clear
8:34 AM 17.6 °F - 17.6 °F 100% 30.41 in 7.0 mi Calm Calm - N/A   Clear
9:34 AM 21.2 °F - 19.4 °F 93% 30.41 in 10.0 mi Calm Calm - N/A   Clear
9:54 AM 24.8 °F - 19.4 °F 80% 30.41 in 10.0 mi Calm Calm - N/A   Clear
10:14 AM 24.8 °F - 21.2 °F 86% 30.40 in 10.0 mi Calm Calm - N/A   Clear
10:34 AM 26.6 °F - 21.2 °F 80% 30.39 in 10.0 mi Calm Calm - N/A   Clear
10:55 AM 26.6 °F - 21.2 °F 80% 30.40 in 10.0 mi Calm Calm - N/A   Clear
11:15 AM 28.4 °F 22.2 °F 19.4 °F 69% 30.40 in 10.0 mi East 5.8 mph - N/A   Clear
11:35 AM 28.4 °F - 19.4 °F 69% 30.39 in 10.0 mi Calm Calm - N/A   Clear
11:55 AM 30.2 °F 26.7 °F 19.4 °F 64% 30.39 in 10.0 mi ESE 3.5 mph - N/A   Clear
12:15 PM 30.2 °F - 19.4 °F 64% 30.38 in 10.0 mi Calm Calm - N/A   Clear
12:35 PM 30.2 °F 26.7 °F 19.4 °F 64% 30.36 in 10.0 mi SSE 3.5 mph - N/A   Scattered Clouds
12:55 PM 30.2 °F - 19.4 °F 64% 30.34 in 10.0 mi Calm Calm - N/A   Scattered Clouds
1:15 PM 30.2 °F 22.6 °F 19.4 °F 64% 30.32 in 10.0 mi ESE 8.1 mph - N/A   Scattered Clouds
1:35 PM 30.2 °F 25.4 °F 19.4 °F 64% 30.33 in 10.0 mi ESE 4.6 mph - N/A   Scattered Clouds
1:55 PM 30.2 °F 26.7 °F 19.4 °F 64% 30.32 in 10.0 mi ESE 3.5 mph - N/A   Clear
2:31 PM 30.2 °F 25.4 °F 17.6 °F 60% 30.31 in 10.0 mi ESE 4.6 mph - N/A   Clear
2:51 PM 30.2 °F 25.4 °F 19.4 °F 64% 30.30 in 10.0 mi ENE 4.6 mph - N/A   Clear
3:11 PM 28.4 °F 21.2 °F 19.4 °F 69% 30.30 in 10.0 mi ESE 6.9 mph - N/A   Clear
3:31 PM 28.4 °F 23.3 °F 19.4 °F 69% 30.31 in 10.0 mi SE 4.6 mph - N/A   Clear
3:51 PM 28.4 °F 23.3 °F 19.4 °F 69% 30.30 in 10.0 mi SSE 4.6 mph - N/A   Clear
4:11 PM 28.4 °F 24.6 °F 19.4 °F 69% 30.30 in 10.0 mi ESE 3.5 mph - N/A   Clear
4:31 PM 28.4 °F 23.3 °F 19.4 °F 69% 30.29 in 10.0 mi SE 4.6 mph - N/A   Clear
4:51 PM 28.4 °F 23.3 °F 17.6 °F 64% 30.28 in 10.0 mi ESE 4.6 mph - N/A   Clear
5:11 PM 28.4 °F 23.3 °F 19.4 °F 69% 30.29 in 10.0 mi SSE 4.6 mph - N/A   Scattered Clouds
5:32 PM 28.4 °F 23.3 °F 19.4 °F 69% 30.28 in 10.0 mi SE 4.6 mph - N/A   Scattered Clouds
5:52 PM 28.4 °F - 19.4 °F 69% 30.28 in 10.0 mi Calm Calm - N/A   Clear
6:12 PM 28.4 °F - 21.2 °F 74% 30.27 in 10.0 mi Calm Calm - N/A   Clear
6:32 PM 28.4 °F - 21.2 °F 74% 30.27 in 10.0 mi Calm Calm - N/A   Clear
6:52 PM 28.4 °F - 21.2 °F 74% 30.27 in 10.0 mi Calm Calm - N/A   Clear
7:12 PM 28.4 °F - 21.2 °F 74% 30.25 in 10.0 mi Calm Calm - N/A   Clear
7:32 PM 28.4 °F - 21.2 °F 74% 30.25 in 10.0 mi Calm Calm - N/A   Clear
7:52 PM 28.4 °F - 21.2 °F 74% 30.25 in 10.0 mi Calm Calm - N/A   Clear
8:12 PM 28.4 °F - 21.2 °F 74% 30.24 in 10.0 mi Calm Calm - N/A   Clear
8:33 PM 28.4 °F 24.6 °F 21.2 °F 74% 30.22 in 10.0 mi NNE 3.5 mph - N/A   Clear
8:53 PM 28.4 °F - 21.2 °F 74% 30.21 in 10.0 mi Calm Calm - N/A   Scattered Clouds
9:13 PM 28.4 °F - 21.2 °F 74% 30.22 in 10.0 mi Calm Calm - N/A   Scattered Clouds
9:33 PM 28.4 °F - 21.2 °F 74% 30.20 in 10.0 mi Calm Calm - N/A   Scattered Clouds
9:53 PM 28.4 °F - 21.2 °F 74% 30.19 in 10.0 mi Calm Calm - N/A   Scattered Clouds
10:13 PM 28.4 °F - 23.0 °F 80% 30.18 in 10.0 mi Calm Calm - N/A   Mostly Cloudy
10:33 PM 28.4 °F - 23.0 °F 80% 30.17 in 10.0 mi Calm Calm - N/A   Mostly Cloudy
10:55 PM 26.6 °F - 21.2 °F 80% 30.15 in 10.0 mi Calm Calm - N/A   Scattered Clouds
11:16 PM 26.6 °F - 23.0 °F 86% 30.14 in 10.0 mi Calm Calm - N/A   Scattered Clouds
11:31 PM 26.6 °F - 23.0 °F 86% 30.13 in 10.0 mi Calm Calm - N/A   Scattered Clouds
11:51 PM 26.6 °F - 23.0 °F 86% 30.13 in 10.0 mi Calm Calm - N/A   Mostly Cloudy